Regional Weather Roundup
Issued by NWS

Home | Current Version | Previous Version | Graphics & Text | Print | Product List | Glossary On
Versions: 1 2 3 4 5 6 7 8 9 10 11 12 13 14 15 16 17 18 19 20 21 22 23 24 25 26 27 28 29 30 31 32 33 34 35 36 37 38 39 40 41 42 43 44 45 46 47 48 49 50
344
ASUS43 KDMX 221901
RWRIA

WEATHER ROUNDUP FOR IOWA
NATIONAL WEATHER SERVICE DES MOINES IA
100 PM CST WED FEB 22 2017

NOTE: "FAIR" INDICATES FEW OR NO CLOUDS BELOW 12,000 FEET WITH NO
SIGNIFICANT WEATHER AND/OR OBSTRUCTIONS TO VISIBILITY.

* - THESE STATIONS ARE NOT NWS STATIONS...THUS NOT UNDER NWS
QUALITY CONTROL.  THEY ALSO DO NOT REPORT WEATHER SUCH
AS PRECIPITATION OR FOG.

IAZ001>003-012>014-020>022-031>034-043>046-222000-
   NORTHWEST IOWA

CITY           SKY/WX    TMP DP  RH WIND       PRES   REMARKS
CARROLL *      SUNNY     64  41  42 W13       29.60F
CHEROKEE *     SUNNY     65  42  43 W13G22    29.60F
DENISON *      SUNNY     66  41  39 NW14G21   29.60S
LE MARS *      SUNNY     64  43  45 W17G25    29.64S
ORANGE CITY *  SUNNY     63  46  55 NW16      29.62S
SHELDON *      SUNNY     61  48  63 W10       29.60S
SIOUX CITY     SUNNY     69  41  36 NW20      29.62F
SPENCER        SUNNY     66  44  45 W20       29.58F HAZE
STORM LAKE *   SUNNY     66  43  42 NW21      29.60S
$$

IAZ055>058-069>071-079>083-090>094-222000-
   SOUTHWEST IOWA

CITY           SKY/WX    TMP DP  RH WIND       PRES   REMARKS
ATLANTIC *     SUNNY     66  39  37 W12       29.63S
CLARINDA *     SUNNY     70  37  30 W12         N/A
COUNCIL BLFS * SUNNY     68  37  32 N9G17     29.63F
CRESTON *      SUNNY     66  36  32 SW15      29.64F
HARLAN  *      SUNNY     66  41  39 NW6G15    29.66S
LAMONI         SUNNY     74  36  25 SW21G28   29.63S
RED OAK *      SUNNY     68  39  34 W13       29.65R
SHENANDOAH *   SUNNY     68  37  32 W12       29.66R
$$

IAZ047>049-059>061-072>074-084-222000-
   CENTRAL IOWA

CITY           SKY/WX    TMP DP  RH WIND       PRES   REMARKS
AMES           SUNNY     65  43  44 W14       29.59F
ANKENY *       SUNNY     70  36  28 SW17G25   29.61S
BOONE *        SUNNY     64  39  39 SW14      29.58F
CHARITON *     SUNNY     72  41  33 SW22G28   29.61F
DES MOINES     MOSUNNY   71  34  25 W24       29.60F
GRINNELL*      SUNNY     71  40  32 SW15      29.60F
KNOXVILLE *    SUNNY     72  39  30 SW20      29.58F
MARSHALLTOWN   SUNNY     71  38  29 SW16      29.56F
NEWTON *       SUNNY     72  37  28 SW20G28   29.58F
PELLA *        SUNNY     72  39  29 SW12G25   29.60F
PERRY *          N/A     64  38  38 W13       29.60F
$$

IAZ004>006-015-016-023>025-035-036-222000-
   NORTH CENTRAL IOWA

CITY           SKY/WX    TMP DP  RH WIND       PRES   REMARKS
ALGONA *       SUNNY     59  48  67 S5        29.56F
CLARION *      SUNNY     59  45  58 W9        29.56F
ESTHERVILLE    SUNNY     60  48  64 NW17      29.57S
FORT DODGE *   SUNNY     63  45  51 SW6       29.59S
MASON CITY     SUNNY     58  41  53 VRB6      29.56F
FOREST CITY *    N/A     55  41  58 W3        29.56F
WEBSTER CITY * SUNNY     64  43  45 W12       29.56F
IOWA FALLS *     N/A     64  45  50 SW12      29.58F
$$

IAZ007>011-017>019-026>030-037>042-050>054-066-222000-
   NORTHEAST IOWA

CITY           SKY/WX    TMP DP  RH WIND       PRES   REMARKS
CEDAR RAPIDS   SUNNY     73  44  35 S23G29    29.57F
CHARLES CITY * MOSUNNY   57  45  62 VRB3      29.57F
CLINTON *      SUNNY     70  50  49 S18       29.64F
DECORAH *      MOSUNNY   55  41  58 VRB7G16   29.56F
DUBUQUE        SUNNY     68  47  46 S23       29.60F
MONTICELLO *   SUNNY     72  45  37 S16G25    29.58F
OELWEIN *      SUNNY     64  43  45 SW12      29.58F
WATERLOO       SUNNY     66  39  37 SW14      29.57F
$$

IAZ064-065-067-068-078-222000-
   EAST CENTRAL IOWA

CITY           SKY/WX    TMP DP  RH WIND       PRES   REMARKS
DAVENPORT      SUNNY     69  50  50 S18       29.64F
IOWA CITY      SUNNY     75  43  31 S16G25    29.61F
MUSCATINE *    SUNNY     72  50  46 S18       29.63F
QUAD CITIES    SUNNY     72  52  49 SW15G23   29.64F
$$

IAZ062-063-075>077-085>089-095>099-222000-
   SOUTHEAST IOWA

CITY           SKY/WX    TMP DP  RH WIND       PRES   REMARKS
BURLINGTON     SUNNY     68  57  68 S18G24    29.67F
FAIRFIELD *    SUNNY     73  43  33 S21G30    29.62F
KEOKUK *       SUNNY     68  55  64 S17       29.67F
OTTUMWA        SUNNY     78  37  22 S24       29.59F
WASHINGTON *   SUNNY     75  46  35 S22G31    29.62F
$$

ABBREVIATIONS USED IN REMARKS
   TC - TEMPERATURES IN CELSIUS
  WCI - WIND CHILL INDEX
   HX - HEAT INDEX
  VSB - VISIBILITY
$$





USA.gov is the U.S. government's official web portal to all federal, state and local government web resources and services.